When you browse on this site, cookies collect data to enhance your experience and personalize the content and advertising you see.
Visit our Privacy Policy to learn more. By continuing to use the site, you agree to this use of cookies and data.
  • In Portugal
  • List of Countries
  • For 7 days
  • Water Temperature
  • Satellite Maps
  • Weather Map
  • Weather Widgets
  • user-avatar
    Login

    Hourly Weather Monastevo

    Today, 24 April, Wednesday

    Time Temperature Precipitation Wind Pressure Humidity
    00:00 +10°C° 0 mm 0 mps 752 mmHg 61%
    01:00 +10°C° 0 mm 0 mps 752 mmHg 62%
    02:00 +9°C° 0 mm 0 mps 752 mmHg 59%
    03:00 +9°C° 0 mm 0 mps 752 mmHg 60%
    04:00 +8°C° 0 mm 0 mps 752 mmHg 61%
    05:00 +8°C° 0 mm 0 mps 752 mmHg 62%
    06:00 +11°C° 0 mm 0 mps 752 mmHg 56%
    07:00 +13°C° 0 mm 0 mps 752 mmHg 50%
    08:00 +16°C° 0 mm 0 mps 753 mmHg 44%
    09:00 +18°C° 0 mm 0 mps 753 mmHg 39%
    10:00 +20°C° 0 mm 0 mps 752 mmHg 34%
    11:00 +22°C° 0 mm 0 mps 752 mmHg 30%
    12:00 +22°C° 0 mm 0 mps 752 mmHg 28%
    13:00 +24°C° 0 mm 1 mps 752 mmHg 27%
    14:00 +24°C° 0 mm 1 mps 752 mmHg 26%
    15:00 +24°C° 0 mm 1 mps 751 mmHg 28%
    16:00 +21°C° 0 mm 0 mps 751 mmHg 29%
    17:00 +21°C° 0 mm 0 mps 751 mmHg 30%
    18:00 +18°C° 0 mm 0 mps 751 mmHg 36%
    19:00 +16°C° 0 mm 0 mps 751 mmHg 41%
    20:00 +14°C° 0 mm 0 mps 750 mmHg 46%
    21:00 +13°C° 0 mm 0 mps 750 mmHg 49%
    22:00 +14°C° 0 mm 1 mps 751 mmHg 51%
    23:00 +13°C° 0 mm 1 mps 751 mmHg 54%

    Tomorrow, 25 April, Thursday

    Time Temperature Precipitation Wind Pressure Humidity
    00:00 +13°C° 0 mm 1 mps 751 mmHg 56%
    01:00 +12°C° 0 mm 1 mps 751 mmHg 58%
    02:00 +12°C° 0 mm 1 mps 751 mmHg 60%
    03:00 +11°C° 0 mm 1 mps 751 mmHg 61%
    04:00 +10°C° 0 mm 0 mps 751 mmHg 62%
    05:00 +10°C° 0 mm 0 mps 750 mmHg 64%
    06:00 +13°C° 0 mm 1 mps 750 mmHg 58%
    07:00 +15°C° 0 mm 1 mps 750 mmHg 53%
    08:00 +18°C° 0 mm 1 mps 750 mmHg 48%
    09:00 +20°C° 0 mm 1 mps 750 mmHg 43%
    10:00 +22°C° 0 mm 1 mps 750 mmHg 38%
    11:00 +24°C° 0 mm 1 mps 750 mmHg 34%
    12:00 +23°C° 0 mm 1 mps 750 mmHg 36%
    13:00 +23°C° 0 mm 1 mps 749 mmHg 37%
    14:00 +22°C° 0 mm 1 mps 749 mmHg 39%
    15:00 +22°C° 0 mm 1 mps 749 mmHg 41%
    16:00 +21°C° 0 mm 1 mps 749 mmHg 44%
    17:00 +21°C° 0 mm 1 mps 748 mmHg 46%
    18:00 +20°C° 0 mm 1 mps 748 mmHg 48%
    19:00 +19°C° 0 mm 1 mps 748 mmHg 51%
    20:00 +18°C° 0 mm 1 mps 748 mmHg 53%
    21:00 +16°C° 0 mm 1 mps 748 mmHg 54%
    22:00 +16°C° 0 mm 1 mps 748 mmHg 55%
    23:00 +15°C° 0 mm 1 mps 748 mmHg 56%

    Day after tomorrow, 26 April, Friday

    Time Temperature Precipitation Wind Pressure Humidity
    00:00 +14°C° 0 mm 1 mps 748 mmHg 57%
    01:00 +14°C° 0 mm 1 mps 748 mmHg 58%
    02:00 +12°C° 0 mm 0 mps 748 mmHg 59%
    03:00 +12°C° 0 mm 0 mps 748 mmHg 61%
    04:00 +11°C° 0 mm 0 mps 748 mmHg 63%
    05:00 +11°C° 0 mm 0 mps 747 mmHg 64%
    06:00 +14°C° 0 mm 1 mps 747 mmHg 59%
    07:00 +16°C° 0 mm 1 mps 747 mmHg 54%
    08:00 +19°C° 0 mm 1 mps 747 mmHg 48%
    09:00 +19°C° 0 mm 2 mps 747 mmHg 43%
    10:00 +20°C° 0 mm 2 mps 747 mmHg 38%
    11:00 +22°C° 0 mm 3 mps 747 mmHg 33%
    12:00 +22°C° 0 mm 3 mps 746 mmHg 33%
    13:00 +22°C° 0 mm 3 mps 746 mmHg 32%
    14:00 +21°C° 0 mm 3 mps 746 mmHg 32%
    15:00 +21°C° 0 mm 2 mps 745 mmHg 36%
    16:00 +20°C° 0 mm 2 mps 744 mmHg 41%
    17:00 +19°C° 0 mm 2 mps 744 mmHg 45%
    18:00 +18°C° 0 mm 2 mps 744 mmHg 50%
    19:00 +17°C° 0 mm 2 mps 744 mmHg 55%
    20:00 +15°C° 0 mm 2 mps 743 mmHg 59%
    21:00 +15°C° 0.3 mm 2 mps 743 mmHg 66%
    22:00 +14°C° 0.3 mm 2 mps 743 mmHg 73%
    23:00 +13°C° 0.3 mm 2 mps 742 mmHg 80%

    27 April, Saturday

    Time Temperature Precipitation Wind Pressure Humidity
    00:00 +13°C° 0.4 mm 2 mps 742 mmHg 83%
    01:00 +12°C° 0.4 mm 2 mps 742 mmHg 85%
    02:00 +12°C° 0.4 mm 2 mps 742 mmHg 88%
    03:00 +11°C° 0 mm 1 mps 741 mmHg 87%
    04:00 +11°C° 0 mm 1 mps 741 mmHg 86%
    05:00 +11°C° 0 mm 1 mps 741 mmHg 86%
    06:00 +12°C° 0 mm 1 mps 741 mmHg 78%
    07:00 +14°C° 0 mm 1 mps 740 mmHg 71%
    08:00 +16°C° 0 mm 1 mps 740 mmHg 64%
    09:00 +18°C° 0 mm 1 mps 740 mmHg 56%
    10:00 +20°C° 0 mm 1 mps 740 mmHg 48%
    11:00 +22°C° 0 mm 1 mps 739 mmHg 40%
    12:00 +22°C° 0.1 mm 1 mps 739 mmHg 41%
    13:00 +23°C° 0.1 mm 1 mps 739 mmHg 41%
    14:00 +24°C° 0.1 mm 1 mps 739 mmHg 42%
    15:00 +22°C° 0.8 mm 1 mps 739 mmHg 48%
    16:00 +21°C° 0.8 mm 1 mps 738 mmHg 54%
    17:00 +20°C° 0.8 mm 1 mps 738 mmHg 60%
    18:00 +19°C° 0.2 mm 1 mps 738 mmHg 65%
    19:00 +16°C° 0.2 mm 1 mps 739 mmHg 70%
    20:00 +15°C° 0.2 mm 1 mps 739 mmHg 75%
    21:00 +14°C° 0 mm 1 mps 739 mmHg 77%
    22:00 +13°C° 0 mm 2 mps 739 mmHg 78%
    23:00 +13°C° 0 mm 2 mps 739 mmHg 79%

    28 April, Sunday

    Time Temperature Precipitation Wind Pressure Humidity
    00:00 +12°C° 0 mm 2 mps 740 mmHg 78%
    01:00 +10°C° 0 mm 3 mps 740 mmHg 76%
    02:00 +10°C° 0 mm 3 mps 741 mmHg 75%
    03:00 +8°C° 0 mm 4 mps 741 mmHg 77%
    04:00 +7°C° 0 mm 4 mps 742 mmHg 79%
    05:00 +7°C° 0 mm 4 mps 742 mmHg 81%
    06:00 +7°C° 0 mm 4 mps 742 mmHg 76%
    07:00 +8°C° 0 mm 4 mps 743 mmHg 71%
    08:00 +10°C° 0 mm 4 mps 744 mmHg 66%
    09:00 +10°C° 0 mm 4 mps 744 mmHg 60%
    10:00 +11°C° 0 mm 4 mps 744 mmHg 53%
    11:00 +12°C° 0 mm 4 mps 745 mmHg 47%
    12:00 +12°C° 0 mm 4 mps 745 mmHg 43%
    13:00 +13°C° 0 mm 4 mps 745 mmHg 38%
    14:00 +13°C° 0 mm 4 mps 745 mmHg 34%
    15:00 +12°C° 0 mm 4 mps 745 mmHg 36%
    16:00 +12°C° 0 mm 4 mps 746 mmHg 38%
    17:00 +11°C° 0 mm 4 mps 746 mmHg 40%
    18:00 +10°C° 0 mm 3 mps 746 mmHg 46%
    19:00 +8°C° 0 mm 3 mps 747 mmHg 53%
    20:00 +7°C° 0 mm 2 mps 747 mmHg 59%
    21:00 +6°C° 0 mm 2 mps 747 mmHg 62%
    22:00 +5°C° 0 mm 2 mps 748 mmHg 65%
    23:00 +4°C° 0 mm 2 mps 748 mmHg 67%

    29 April, Monday

    Time Temperature Precipitation Wind Pressure Humidity
    00:00 +3°C° 0 mm 2 mps 749 mmHg 68%
    01:00 +3°C° 0 mm 2 mps 749 mmHg 69%
    02:00 +2°C° 0 mm 2 mps 749 mmHg 70%
    03:00 +2°C° 0 mm 2 mps 749 mmHg 70%
    04:00 +1°C° 0 mm 2 mps 749 mmHg 69%
    05:00 +1°C° 0 mm 2 mps 749 mmHg 68%
    06:00 +2°C° 0 mm 2 mps 750 mmHg 61%
    07:00 +4°C° 0 mm 2 mps 750 mmHg 54%
    08:00 +5°C° 0 mm 3 mps 750 mmHg 47%
    09:00 +7°C° 0 mm 3 mps 750 mmHg 43%
    10:00 +8°C° 0 mm 2 mps 750 mmHg 39%
    11:00 +10°C° 0 mm 2 mps 750 mmHg 35%
    12:00 +10°C° 0 mm 2 mps 749 mmHg 33%
    13:00 +12°C° 0 mm 2 mps 749 mmHg 31%
    14:00 +13°C° 0 mm 2 mps 749 mmHg 29%
    15:00 +13°C° 0 mm 2 mps 748 mmHg 30%
    16:00 +13°C° 0 mm 2 mps 748 mmHg 30%
    17:00 +12°C° 0 mm 1 mps 748 mmHg 31%
    18:00 +10°C° 0 mm 1 mps 748 mmHg 37%
    19:00 +9°C° 0 mm 1 mps 748 mmHg 43%
    20:00 +7°C° 0 mm 1 mps 748 mmHg 49%
    21:00 +6°C° 0 mm 1 mps 748 mmHg 51%
    22:00 +5°C° 0 mm 1 mps 748 mmHg 54%
    23:00 +5°C° 0 mm 1 mps 748 mmHg 57%
    Show more